Location: Dutlubah�e
(36.9084°N, 30.7018°E)
Time: 11:17:24
(UTC+00:00)

Daily predictions for brighter satellites

Satellite Brightness Start Highest point End
(mag) Time Altitude Azimuth Time Altitude Azimuth Time Altitude Azimuth
Meteor 1-21 Rocket 4.3 15:38:32 10° S 15:44:04 86° W 15:49:40 10° N
H-2A R/B 3.3 15:41:36 10° ESE 15:45:09 20° ENE 15:48:46 10° NNE
Cosmos 1833 Rocket 3.7 15:41:21 10° N 15:45:56 25° ENE 15:50:29 10° ESE
Cosmos 2026 Rocket 4.2 15:41:27 10° SSE 15:47:18 49° E 15:53:15 10° NNE
USA 229 DEB 4.3 15:40:59 10° NNW 15:47:55 42° NE 15:55:08 10° ESE
USA 229 4.3 15:41:05 10° NNW 15:48:01 42° NE 15:55:14 10° ESE
Feng Yun 1-1 Rocket 4.4 15:45:15 10° SE 15:50:28 49° ENE 15:55:49 10° N
Lacrosse 5 3.3 15:45:47 10° NW 15:50:31 42° SW 15:55:14 10° SSE
USA 290 4.0 15:49:20 10° NNE 15:51:07 14° ENE 15:52:53 10° E
Cosmos 1939 Rocket 2.9 15:47:51 10° SSE 15:51:53 62° ENE 15:55:53 10° N
USA 276 4.2 15:50:18 10° SSE 15:52:10 15° SE 15:54:02 10° E
FengYun 1-2 T 4.5 15:48:00 10° S 15:53:34 81° WSW 15:59:13 10° NNW
Cosmos 1602 Rocket 3.5 15:49:21 10° S 15:53:40 80° E 15:58:04 10° N
H-2A R/B 3.4 15:52:29 10° N 15:56:35 42° WNW 16:00:34 10° SW
SJ 16-02 3.9 15:54:01 10° WSW 15:57:16 20° WNW 16:00:32 10° NNW
Aureole 3 Rocket 3.4 15:55:39 10° NNE 15:58:53 34° E 16:02:58 10° SSE
YAOGAN 1 3.6 15:56:37 10° ESE 16:00:04 24° ENE 16:03:31 10° NNE
Cosmos 2112 Rocket 3.9 15:55:02 10° NNW 16:00:16 76° ENE 16:05:26 10° SSE
H-2A R/B 4.4 15:58:52 10° SSW 16:02:37 35° W 16:06:32 10° NNW
NOSS 3-1 (A) 4.4 15:56:19 10° NNW 16:03:45 47° NE 16:12:08 10° SE
COSMOS 2406 3.6 15:59:40 10° N 16:05:07 41° ENE 16:10:31 10° SE
Cosmos 2082 Rocket 3.4 16:01:21 10° N 16:05:29 20° NE 16:09:35 10° ESE
IRS-1C Rocket 4.3 16:00:37 10° SE 16:05:37 48° ENE 16:10:40 10° N
Cosmos 1825 Rocket 3.9 16:04:39 10° SSE 16:08:46 43° E 16:12:57 10° NNE
Cosmos 1703 4.3 16:05:51 10° SSW 16:09:36 49° W 16:13:22 10° N
Cosmos 1689 Rocket 2.6 16:09:44 10° NNE 16:12:22 33° E 16:14:58 10° SSE
Okean O Rocket 3.2 16:10:55 10° S 16:15:04 40° W 16:19:14 10° NNW
Cosmos 1812 Rocket 3.5 16:13:25 10° N 16:17:49 89° SW 16:22:08 10° S
X-37B 2.0 16:15:24 10° NW 16:18:06 24° NNE 16:19:18 19° NE
CZ-4 R/B 1.6 16:16:53 10° SSE 16:20:46 46° ENE 16:24:35 10° N
Iridium 4 Rocket 3.3 16:18:20 10° N 16:23:35 73° E 16:28:19 10° S
Okean-O 2.8 16:22:25 10° SSE 16:26:41 49° ENE 16:30:58 10° N
SKYMED 2 4.5 16:23:11 10° N 16:27:24 51° WNW 16:31:36 10° SSW
Cosmos 2278 Rocket 2.4 16:21:48 10° SSW 16:27:27 75° WNW 16:33:09 10° NNE
ERS-2 2.1 16:26:21 10° NNE 16:29:59 84° WNW 16:33:37 10° SSW
CZ-2C R/B 3.3 16:26:12 10° SSE 16:31:36 84° WSW 16:37:19 10° NNW
Cosmos 1346 Rocket 2.7 16:29:34 10° S 16:33:28 87° W 16:37:25 10° N
Cosmos 2292 Rocket 4.0 16:28:38 10° SSE 16:33:46 46° E 16:37:14 13° NNE
Cosmos 1953 Rocket 3.5 16:30:57 10° S 16:35:12 55° E 16:39:26 10° NNE
Cosmos 44 Rocket 3.2 16:36:12 10° SSW 16:41:01 77° ESE 16:44:33 20° NE
SWARM C 4.4 16:38:34 10° S 16:41:51 68° E 16:44:47 13° N
SWARM A 4.0 16:38:40 10° S 16:41:57 74° E 16:45:16 10° N
Cosmos 1892 3.1 16:39:01 10° SSE 16:42:18 36° E 16:42:18 36° E
ARGOS 3.2 16:39:38 10° SSE 16:44:47 50° ENE 16:49:59 10° N
SAR-Lupe-4 4.1 16:44:37 10° N 16:48:09 59° WNW 16:51:39 10° SSW
Lacrosse 5 rocket 3.8 16:48:18 10° SSE 16:48:44 11° SE 16:48:44 11° SE
DMSP B5D1-3 4.4 16:46:00 10° NNE 16:51:08 87° ESE 16:56:14 10° SSW
Cosmos 405 4.4 16:47:58 10° NNW 16:51:18 40° W 16:54:35 10° SSW
CZ-2C R/B 2.7 16:54:13 10° NNE 16:59:47 62° E 17:05:19 10° S
Cosmos 2150 Rocket 3.9 16:56:32 10° SSW 17:01:41 88° ESE 17:05:24 20° NNE
DMSP B5D2-2 4.3 17:05:06 45° E 17:05:09 45° E 17:10:11 10° S
Cosmos 2297 3.7 17:02:25 10° S 17:07:57 58° ESE 17:09:22 45° ENE
Cosmos 1048 Rocket 4.0 17:04:22 10° N 17:09:14 52° ENE 17:09:14 52° ENE
Cosmos-2242 4.4 17:08:54 10° NNW 17:12:55 39° W 17:16:56 10° SSW
CSL-04 Debris 4.2 17:13:01 10° S 17:18:24 81° WSW 17:23:48 10° NNW
SL-08 RB Rocket 4.2 17:21:14 46° N 17:21:14 46° N 17:24:24 10° N
Cosmos 1809 Rocket 4.4 17:16:44 10° S 17:22:50 82° W 17:29:01 10° N
H-2A R/B 3.1 17:19:24 10° S 17:24:11 45° W 17:29:06 10° NNW
Cosmos 1125 Rocket 3.6 17:21:22 10° SSW 17:26:34 75° WNW 17:28:19 43° N
Cosmos 2266 Rocket 3.9 17:20:19 10° S 17:26:35 86° W 17:32:46 10° N
Helios 1A Rocket 4.1 17:22:57 10° S 17:26:53 43° W 17:30:50 10° NNW
USA 276 4.4 17:24:58 10° WSW 17:26:35 26° W 17:26:35 26° W
Cosmos 1833 Rocket 3.8 17:24:43 10° NW 17:29:59 42° WSW 17:35:13 10° S
USA 267 3.7 17:32:31 41° SE 17:32:31 41° SE 17:37:54 10° SSW
CZ-3B R/B 3.5 17:35:17 10° NW 17:39:30 77° SW 17:58:00 10° SE
Cosmos 1943 Rocket 3.0 17:38:16 10° SSW 17:41:41 39° S 17:41:41 39° S
Cosmos 2082 Rocket 2.7 17:44:21 10° NNW 17:49:56 56° WSW 17:51:40 40° SSW
ATLAS 2A CENTAUR R/B 4.4 17:40:14 10° WSW 18:10:00 42° S 18:12:01 39° SSE
Milstar 3 4.3 18:40:07 10° WSW 18:44:24 29° SW 18:44:24 29° SW
